Location: Grand Mazuras
(45.9128°N, 1.7636°E)
Time: 18:24:32
(UTC+00:00)

Cosmos 1980 - Pass Details

Date: 18 April 2021
Orbit: 838 x 848 km, 71.0° (Epoch: 11 May)

Event Time Altitude Azimuth Distance (km) Brightness Sun altitude
Rises 20:29:06 0° 335° (NNW) 3,418 8.0 -17.0°
Reaches altitude 10° 20:31:35 10° 338° (NNW) 2,480 7.0 -17.4°
Maximum altitude 20:37:15 67° 61° (ENE) 921 3.8 -18.2°
Enters shadow 20:39:51 33° 134° (SE) 1,402 4.3 -18.5°
